"Pseudo-MPEC" for C1HX592

Created 2019 Dec 4 23:07:22 UT using Find_Orb

Click here for an explanation of pseudo-MPECs

 
 Astrometry: 
     C1HX592  C2019 12 03.31572 03 39 48.06 +27 54 02.3    ~C38M 20.9 GVNEOCPG96
     C1HX592  C2019 12 03.32140 03 39 50.21 +27 54 08.5    ~C38M       VNEOCPG96
     C1HX592  C2019 12 03.32709 03 39 52.30 +27 54 13.6    ~C38M 21.2 GVNEOCPG96
     C1HX592  C2019 12 03.42389 03 40 31.90 +27 55 15.3    ~C3Ab       VNEOCPI52
     C1HX592  C2019 12 03.42556 03 40 32.65 +27 55 14.8    ~C3Ab 20.9 GVNEOCPI52
     C1HX592  C2019 12 03.42723 03 40 33.45 +27 55 15.9    ~C3Ab       VNEOCPI52
     C1HX592  C2019 12 03.42890 03 40 34.20 +27 55 17.2    ~C3Ab 21.2 GVNEOCPI52
     C1HX592  C2019 12 04.12760 03 46 55.59 +28 08 07.9    ~C4AM 20.7 VVNEOCP033
     C1HX592  C2019 12 04.12986 03 46 56.73 +28 08 08.8    ~C4AM 20.2 VVNEOCP033
     C1HX592  C2019 12 04.13210 03 46 57.78 +28 08 09.5    ~C4AM 20.5 VVNEOCP033
     C1HX592 NC2019 12 04da*VA;6DjxAstrometry;8redacted;kZy`ll3;[B]]Q5de(%Oc@L01
     C1HX592 bC2019 12 043?;OV_s.U1Sidm[1'vl#Z*TIclickn@,MIon]4/fDI_,XJ`GiS\4L01
     C1HX592 KC2019 12 04YF8m*Fpy@jqN'`^m^a,k?0+@y8SM5T?\^eS7,UP'Fhere1g^$%EdK51
     C1HX592 KC2019 12 04ptforU^Nn;[uPi:3N%f?explanationeu7oV^CB^IBHs`wOy%wn:K51
     C1HX592 KC2019 12 04rD*212kQ+1'C][a'WE*yHW:y`mX]ar/_VAqBgHNxOKXg,sHc?R=AK51

Station data:
(033) Karl Schwarzschild Observatory, Tautenburg  (N50.980140 E11.711240)
   Germany. 1.3-m Schmidt.
(G96) Mt. Lemmon Survey  (N32.442754 W110.788720)  US/Arizona.  Observers T.
   A. Pruyne, B. M. Africano, E. J. Christensen, G. A. Farneth, D. C. Fuls,
   A. R. Gibbs, A. D. Grauer, H. Gröller, J. A. Johnson, R. A. Kowalski, S.
   M. Larson, G. J. Leonard, D. Rankin, R. L. Seaman, F. C. Shelly. 1.5-m
   reflector + 10K CCD.
(I52) Steward Observatory, Mt. Lemmon Station  (N32.442547 W110.788920)
   US/Arizona.  Observers T. A. Pruyne, B. M. Africano, E. J. Christensen, G.
   A. Farneth, D. C. Fuls, A. R. Gibbs, A. D. Grauer, H. Gröller, J. A.
   Johnson, R. A. Kowalski, S. M. Larson, G. J. Leonard, D. Rankin, R. L.
   Seaman, F. C. Shelly. 1.0-m reflector + CCD.
(K51) Osservatorio del Celado, Castello Tesino  (N46.029412 E11.657900)
   Italy.
(L01) Višnjan Observatory, Tičan  (N45.290900 E13.749300)  Croatia.
   Observers K. Korlević, E. Pettarin. Measurer E. Pettarin. 1.0-m f/2.9
   reflector + CCD.

Orbital elements:  C1HX592
   Perihelion 2019 Nov 5.528031 +/- 0.0971 TT = 12:40:21 (JD 2458793.028031)
Epoch 2019 Dec  4.0 TT = JDT 2458821.5   Earth MOID: 0.0004   AutoNEOCP
M  24.31847218 +/- 0.09             (J2000 ecliptic)
n   0.85411978 +/- 0.000303         Peri.  354.46496 +/- 0.20
a   1.10016256 +/- 0.00026          Node    47.04521 +/- 0.09
e   0.0986507 +/- 0.000143          Incl.    0.35211 +/- 0.0009
P   1.15/421.48d           H 29.1   G  0.15   U  7.3  
q 0.99163073 +/- 9.28e-5    Q 1.20869439 +/- 0.00044
From 15 observations 2019 Dec. 3-4 (36.9 hr); mean residual 0".40
Residuals in arcseconds: 
191203 G96  .03+  .10+    191203 I52  .11+  .30-    191204 L01  .17-  .25+    
191203 G96  .48+  .53+    191203 I52  .04-  .42+    191204 L01  1.2-  .12-    
191203 G96  .09-  .09+    191204 033  .11-  .31-    191204 K51  .55+  .18+    
191203 I52  .37-  .32+    191204 033  .55+  .26-    191204 K51  .59+  .11+    
191203 I52  .44-  .80-    191204 033  .10+  .39-    191204 K51  .17+  .11+    

Ephemerides (geocentric):
Date (UTC) HH   RA              Dec         delta   r     elong  mag " sig PA
---- -- -- --  -------------   -----------  ------ ------ -----  --- ---- ---
2019 12 04 23  03 54 15.453   +28 28 27.35  .01904 1.0041 167.4 21.2 .660 118
2019 12 05 00  03 54 35.628   +28 29 09.84  .01908 1.0042 167.4 21.2 .733 114
2019 12 05 01  03 54 55.729   +28 29 51.94  .01912 1.0042 167.4 21.2 .811 111
2019 12 05 02  03 55 15.759   +28 30 33.67  .01916 1.0042 167.5 21.2 .892 109
2019 12 05 03  03 55 35.716   +28 31 15.01  .01920 1.0043 167.5 21.2 .977 107
2019 12 05 04  03 55 55.601   +28 31 55.99  .01924 1.0043 167.5 21.2 1.07 105
2019 12 05 05  03 56 15.414   +28 32 36.59  .01928 1.0043 167.5 21.2 1.16 103
2019 12 05 06  03 56 35.157   +28 33 16.82  .01932 1.0044 167.6 21.2 1.25 102
2019 12 05 07  03 56 54.828   +28 33 56.69  .01936 1.0044 167.6 21.2 1.35 101
2019 12 05 08  03 57 14.429   +28 34 36.20  .01940 1.0044 167.6 21.2 1.45 100
2019 12 05 09  03 57 33.959   +28 35 15.34  .01944 1.0045 167.6 21.3 1.55  99
2019 12 05 10  03 57 53.420   +28 35 54.13  .01948 1.0045 167.7 21.3 1.66  98
2019 12 05 11  03 58 12.810   +28 36 32.56  .01952 1.0045 167.7 21.3 1.76  97
2019 12 05 12  03 58 32.131   +28 37 10.64  .01956 1.0046 167.7 21.3 1.87  96
2019 12 05 13  03 58 51.383   +28 37 48.37  .01960 1.0046 167.7 21.3 1.98  96
2019 12 05 14  03 59 10.566   +28 38 25.76  .01964 1.0046 167.8 21.3 2.10  95
2019 12 05 15  03 59 29.680   +28 39 02.80  .01968 1.0047 167.8 21.3 2.21  95
2019 12 05 16  03 59 48.726   +28 39 39.50  .01972 1.0047 167.8 21.3 2.33  94
2019 12 05 17  04 00 07.704   +28 40 15.87  .01976 1.0048 167.8 21.3 2.45  94
2019 12 05 18  04 00 26.614   +28 40 51.90  .01980 1.0048 167.9 21.3 2.57  93
2019 12 05 19  04 00 45.457   +28 41 27.59  .01984 1.0048 167.9 21.3 2.70  93
2019 12 05 20  04 01 04.232   +28 42 02.95  .01988 1.0049 167.9 21.3 2.83  93
2019 12 05 21  04 01 22.941   +28 42 37.99  .01992 1.0049 167.9 21.3 2.95  92
2019 12 05 22  04 01 41.583   +28 43 12.70  .01997 1.0049 168.0 21.3 3.08  92
2019 12 05 23  04 02 00.158   +28 43 47.08  .02001 1.0050 168.0 21.3 3.22  92
2019 12 06 00  04 02 18.668   +28 44 21.15  .02005 1.0050 168.0 21.3 3.35  92
2019 12 06 01  04 02 37.112   +28 44 54.90  .02009 1.0050 168.0 21.3 3.48  91
2019 12 06 02  04 02 55.490   +28 45 28.33  .02013 1.0051 168.0 21.3 3.62  91
2019 12 06 03  04 03 13.803   +28 46 01.45  .02017 1.0051 168.1 21.3 3.76  91
2019 12 06 04  04 03 32.051   +28 46 34.26  .02021 1.0051 168.1 21.3 3.90  91
2019 12 06 05  04 03 50.234   +28 47 06.76  .02025 1.0052 168.1 21.3 4.04  90
2019 12 06 06  04 04 08.353   +28 47 38.95  .02029 1.0052 168.1 21.3 4.19  90
2019 12 06 07  04 04 26.408   +28 48 10.84  .02033 1.0052 168.2 21.3 4.33  90
2019 12 06 08  04 04 44.399   +28 48 42.43  .02037 1.0053 168.2 21.3 4.48  90
2019 12 06 09  04 05 02.326   +28 49 13.72  .02042 1.0053 168.2 21.3 4.63  90
2019 12 06 10  04 05 20.190   +28 49 44.72  .02046 1.0054 168.2 21.3 4.78  90
2019 12 06 11  04 05 37.991   +28 50 15.42  .02050 1.0054 168.2 21.3 4.93  90
2019 12 06 12  04 05 55.729   +28 50 45.82  .02054 1.0054 168.3 21.4 5.09  89
2019 12 06 13  04 06 13.405   +28 51 15.94  .02058 1.0055 168.3 21.4 5.24  89
2019 12 06 14  04 06 31.018   +28 51 45.77  .02062 1.0055 168.3 21.4 5.40  89
2019 12 06 15  04 06 48.570   +28 52 15.31  .02066 1.0055 168.3 21.4 5.55  89
2019 12 06 16  04 07 06.059   +28 52 44.57  .02070 1.0056 168.3 21.4 5.71  89
2019 12 06 17  04 07 23.487   +28 53 13.55  .02075 1.0056 168.4 21.4 5.87  89
2019 12 06 18  04 07 40.854   +28 53 42.25  .02079 1.0056 168.4 21.4 6.04  89
2019 12 06 19  04 07 58.160   +28 54 10.67  .02083 1.0057 168.4 21.4 6.20  89
2019 12 06 20  04 08 15.405   +28 54 38.82  .02087 1.0057 168.4 21.4 6.36  89
2019 12 06 21  04 08 32.590   +28 55 06.69  .02091 1.0058 168.4 21.4 6.53  89
2019 12 06 22  04 08 49.715   +28 55 34.30  .02095 1.0058 168.5 21.4 6.70  89